AirNav   Everest Fuels
 
 512 users online  

OK54 May Ranch Airport
Alva, Oklahoma, USA

GOING TO ALVA?


FAA INFORMATION EFFECTIVE 19 MAY 2022

Location

FAA Identifier: OK54
Lat/Long: 36-59-48.1070N 099-00-17.3620W
36-59.801783N 099-00.289367W
36.9966964,-99.0048228
(estimated)
Elevation: 1833 ft. / 559 m (estimated)
Variation: 08E (1985)
From city: 20 miles NW of ALVA, OK
Time zone: UTC -5 (UTC -6 during Standard Time)
Zip code: 73717

Airport Operations

Airport use: Private use. Permission required prior to landing
Activation date: 12/1958
Control tower: no
ARTCC: KANSAS CITY CENTER
FSS: MC ALESTER FLIGHT SERVICE STATION
Attendance: UNATNDD
Wind indicator: yes
Segmented circle: no

Airport Services

Parking: hangars and tiedowns
Airframe service: NONE
Powerplant service: NONE

Runway Information

Runway 17/35

Dimensions: 2000 x 60 ft. / 610 x 18 m
Surface: turf, in fair condition
RUNWAY 17  RUNWAY 35
Traffic pattern: leftleft
Obstructions: 15 ft. road35 ft. trees, 130 ft. from runway, 3:1 slope to clear

Runway 8/26

Dimensions: 1500 x 75 ft. / 457 x 23 m
Surface: turf, in good condition
RUNWAY 8  RUNWAY 26
Traffic pattern: leftleft
Obstructions: none10 ft. road

Airport Ownership and Management from official FAA records

Ownership: Privately-owned
Owner: LEON E. MAY
25638 PAYNE RD
ALVA, OK 73717
Phone 580-829-2968
Manager: LEON E. MAY
25638 PAYNE RD
ALVA, OK 73717
Phone 580-829-2968

Airport Operational Statistics

Aircraft operations: 100/year *
100% transient general aviation
* for 12-month period ending 07 April 1989

Additional Remarks

FOR CD CTC KANSAS CITY ARTCC AT 913-254-8508.

Instrument Procedures

There are no published instrument procedures at OK54.

Some nearby airports with instrument procedures:

3K8 - Comanche County Airport (21 nm NW)
KAVK - Alva Regional Airport (21 nm SE)
KBFK - Buffalo Municipal Airport (31 nm W)
KMDF - Mooreland Municipal Airport (32 nm S)
KWWR - West Woodward Airport (42 nm SW)
 
Loc | Ops | Rwys | IFR | FBO | Links
Com | Nav | Svcs | Stats | Notes

AirBoss

 
Area around OK54 (May Ranch Airport)
 
Road maps at: MapQuest Bing Google
 
Aerial photo
No photo
 
Sectional chart

 
Airport distance calculator
Flying to May Ranch Airport? Find the distance to fly.

From to OK54

Sunrise and sunset
Times for 23-May-2022
 Local
(UTC-5)
 Zulu
(UTC)
Morning civil twilight05:5410:54
Sunrise06:2311:23
Sunset20:4201:42
Evening civil twilight21:1202:12

Current date and time
Zulu (UTC)  23-May-2022 09:47:56
Local (UTC-5)  23-May-2022 04:47:56
 
METAR
KAVK 
21nm SE 
230940Z AUTO 04006KT 10SM OVC090 10/07 A3022 RMK AO2
KP28 
28nm NE 
230856Z AUTO 08003KT 09/04 A3023 RMK AO1 SLP234 T00890044 58007 $
KWWR 
34nm SW 
230930Z AUTO 10005KT 10SM CLR 09/03 A3023 RMK AO2
TAF
KWWR 
34nm SW 
230520Z 2306/2406 11006KT P6SM SKC FM231000 12009KT P6SM OVC040 FM231500 15011KT P6SM OVC015 FM232100 14010KT 4SM -DZ BR OVC008 PROB30 2323/2405 4SM -TSRA OVC015CB
NOTAMs
Click for the latest NOTAMs
NOTAMs are issued by the DoD/FAA and will open in a separate window not controlled by AirNav.

 

 
 

Would you like to see your business listed on this page?

 If your business provides an interesting product or service to pilots, flight crews, aircraft, or users of the May Ranch Airport, you should consider listing it here.  To start the listing process, click on the button below
 
Add a business
 

Other Pages about May Ranch Airport

Update a link
 
Copyright © AirNav, LLC. All rights reserved. Privacy Policy  Contact